TimeEET,TemperatureF,Dew PointF,Humidity,Sea Level PressureIn,VisibilityMPH,Wind Direction,Wind SpeedMPH,Gust SpeedMPH,PrecipitationIn,Events,Conditions,WindDirDegrees,DateUTC
12:50 AM,30.2,30.2,100,30.18,6.2,Variable,1.2,-,N/A,,Mostly Cloudy,0,2013-03-15 22:50:00
1:50 AM,30.2,30.2,100,30.15,6.2,WNW,5.8,-,N/A,,Mostly Cloudy,300,2013-03-15 23:50:00
2:50 AM,28.4,28.4,100,30.12,2.5,SE,3.5,-,N/A,,Mostly Cloudy,130,2013-03-16 00:50:00
3:50 AM,28.4,28.4,100,30.12,2.5,East,4.6,-,N/A,,Mostly Cloudy,100,2013-03-16 01:50:00
4:50 AM,32.0,32.0,100,30.12,6.2,WNW,4.6,-,N/A,,Mostly Cloudy,290,2013-03-16 02:50:00
5:50 AM,30.2,30.2,100,30.12,6.2,Variable,2.3,-,N/A,,Mostly Cloudy,0,2013-03-16 03:50:00
6:50 AM,33.8,32.0,93,30.12,6.2,SE,3.5,-,N/A,,Mostly Cloudy,140,2013-03-16 04:50:00
7:50 AM,35.6,32.0,87,30.12,6.2,NNE,5.8,-,N/A,,Mostly Cloudy,30,2013-03-16 05:50:00
8:00 AM,35,32,83,,6,NNE,5.8,,,,Partly Cloudy,30,2013-03-16 06:00:00
8:50 AM,39.2,32.0,75,30.09,6.2,Variable,1.2,-,N/A,,Mostly Cloudy,0,2013-03-16 06:50:00
9:50 AM,42.8,32.0,66,30.06,6.2,NE,3.5,-,N/A,,Mostly Cloudy,40,2013-03-16 07:50:00
10:50 AM,41.0,32.0,70,30.04,6.2,NNE,9.2,-,N/A,,Mostly Cloudy,20,2013-03-16 08:50:00
11:50 AM,44.6,32.0,61,30.04,6.2,ENE,3.5,-,N/A,,Mostly Cloudy,60,2013-03-16 09:50:00
12:50 PM,41.0,32.0,70,30.01,6.2,East,6.9,-,N/A,,Mostly Cloudy,80,2013-03-16 10:50:00
2:00 PM,45,32,48,,6,East,4.6,,,,Partly Cloudy,80,2013-03-16 12:00:00
2:50 PM,44.6,33.8,66,29.98,6.2,SW,6.9,-,N/A,,Mostly Cloudy,220,2013-03-16 12:50:00
3:50 PM,44.6,32.0,61,29.98,6.2,SSW,5.8,-,N/A,,Mostly Cloudy,200,2013-03-16 13:50:00
4:50 PM,44.6,33.8,66,29.98,6.2,SW,5.8,-,N/A,,Mostly Cloudy,230,2013-03-16 14:50:00
5:50 PM,42.8,32.0,66,29.98,6.2,SSW,15.0,-,N/A,,Mostly Cloudy,200,2013-03-16 15:50:00
6:50 PM,39.2,32.0,75,29.98,6.2,SW,13.8,-,N/A,,Mostly Cloudy,220,2013-03-16 16:50:00
7:50 PM,46.4,33.8,62,29.98,6.2,Variable,2.3,-,N/A,,Mostly Cloudy,0,2013-03-16 17:50:00
8:00 PM,46,33,50,,6,NNE,2.3,,,,Mostly Cloudy,20,2013-03-16 18:00:00
8:50 PM,48.2,33.8,58,29.95,6.2,Variable,4.6,-,N/A,,Mostly Cloudy,0,2013-03-16 18:50:00
9:50 PM,46.4,33.8,62,29.92,6.2,Variable,5.8,-,N/A,,Mostly Cloudy,0,2013-03-16 19:50:00
10:50 PM,42.8,33.8,70,29.92,6.2,WSW,9.2,-,N/A,,Mostly Cloudy,240,2013-03-16 20:50:00
11:50 PM,46.4,33.8,62,29.89,6.2,SSE,6.9,-,N/A,,Mostly Cloudy,150,2013-03-16 21:50:00